2020/07/25 23:31:56+0000,-42.88,-46.76,-36.01,-47.75,-54.90,-55.34
2020/07/25 23:32:49+0000,-42.44,-47.24,-36.48,-48.42,-54.88,-55.63
2020/07/25 23:33:41+0000,-42.08,-47.21,-36.14,-47.85,-54.47,-54.81
2020/07/25 23:34:33+0000,-41.32,-48.05,-36.12,-48.77,-54.63,-55.38
2020/07/25 23:35:25+0000,-40.86,-47.34,-36.14,-47.95,-55.03,-55.27
2020/07/25 23:36:17+0000,-41.17,-46.21,-36.53,-48.01,-54.97,-55.16
2020/07/25 23:37:09+0000,-41.32,-47.57,-36.05,-48.91,-54.89,-54.92
2020/07/25 23:38:01+0000,-40.75,-46.97,-36.49,-48.48,-54.50,-55.39
2020/07/25 23:38:53+0000,-39.97,-46.81,-35.53,-48.86,-54.92,-55.69
2020/07/25 23:39:45+0000,-40.30,-47.70,-34.95,-48.81,-54.26,-55.39
2020/07/25 23:40:37+0000,-39.89,-47.50,-35.54,-48.48,-55.11,-55.10
2020/07/25 23:41:37+0000,-40.74,-47.32,-35.75,-49.26,-54.38,-54.45
2020/07/25 23:42:29+0000,-39.31,-46.93,-36.34,-48.71,-55.00,-54.56
2020/07/25 23:43:21+0000,-38.97,-47.90,-36.00,-48.66,-54.86,-54.84
2020/07/25 23:44:13+0000,-38.64,-47.72,-35.41,-48.48,-54.88,-55.31
2020/07/25 23:45:05+0000,-38.18,-47.69,-36.21,-47.31,-54.50,-54.77
2020/07/25 23:45:57+0000,-37.74,-47.15,-36.75,-47.95,-54.78,-54.26
2020/07/25 23:46:49+0000,-37.61,-48.42,-36.50,-47.24,-55.41,-54.40
2020/07/25 23:47:41+0000,-38.13,-46.48,-36.24,-46.51,-55.62,-55.15
2020/07/25 23:48:33+0000,-37.74,-46.84,-35.76,-47.67,-56.20,-55.63
2020/07/25 23:49:25+0000,-38.16,-48.45,-36.30,-47.46,-55.66,-54.67
2020/07/25 23:50:17+0000,-38.26,-48.86,-36.02,-46.78,-55.38,-54.19
2020/07/25 23:51:17+0000,-38.56,-47.46,-36.53,-49.12,-55.13,-55.32
2020/07/25 23:52:10+0000,-38.98,-47.63,-36.25,-46.69,-55.81,-55.89
2020/07/25 23:53:02+0000,-39.82,-48.00,-36.62,-47.25,-55.54,-55.10
2020/07/25 23:53:54+0000,-39.42,-48.48,-35.87,-47.38,-56.29,-55.35
2020/07/25 23:54:46+0000,-40.24,-47.30,-35.79,-48.07,-56.16,-55.67
2020/07/25 23:55:38+0000,-40.12,-48.37,-36.34,-48.56,-55.89,-54.85
2020/07/25 23:56:30+0000,-40.17,-46.75,-36.18,-49.21,-55.97,-55.27
2020/07/25 23:57:22+0000,-40.42,-48.28,-36.33,-48.84,-56.35,-54.57
2020/07/25 23:58:14+0000,-40.18,-48.12,-36.75,-48.70,-55.39,-54.77
2020/07/25 23:59:06+0000,-40.84,-47.64,-36.06,-48.85,-55.29,-55.64
2020/07/25 23:59:58+0000,-41.22,-49.18,-36.08,-48.89,-54.84,-55.09
2020/07/26 00:00:55+0000,-41.21,-46.46,-35.64,-48.54,-55.31,-55.41
2020/07/26 00:01:54+0000,-40.80,-49.53,-36.54,-48.62,-56.03,-55.22
2020/07/26 00:02:46+0000,-41.03,-48.34,-36.03,-49.23,-54.01,-55.68
2020/07/26 00:03:38+0000,-40.60,-49.44,-36.62,-47.78,-54.01,-55.50
2020/07/26 00:04:30+0000,-39.15,-47.95,-36.25,-50.05,-53.61,-55.67
2020/07/26 00:05:22+0000,-39.65,-48.44,-36.06,-66.67,-54.40,-55.83
2020/07/26 00:06:14+0000,-41.37,-47.75,-36.29,-49.59,-54.60,-56.07
2020/07/26 00:07:06+0000,-40.99,-47.44,-36.70,-68.62,-55.10,-55.66
2020/07/26 00:07:58+0000,-41.34,-48.37,-36.18,-49.52,-54.63,-56.04
2020/07/26 00:08:50+0000,-41.06,-47.50,-36.52,-67.59,-54.42,-55.63
2020/07/26 00:09:42+0000,-41.19,-48.40,-35.89,-48.70,-54.76,-56.13
2020/07/26 00:10:34+0000,-41.14,-48.08,-35.95,-49.72,-54.27,-56.13
2020/07/26 00:11:34+0000,-40.86,-46.33,-36.72,-49.41,-54.62,-56.41
2020/07/26 00:12:26+0000,-42.35,-44.85,-35.92,-49.31,-55.11,-56.44
2020/07/26 00:13:18+0000,-40.45,-45.74,-36.26,-48.94,-53.89,-55.99
2020/07/26 00:14:10+0000,-40.94,-45.51,-36.84,-44.80,-53.93,-56.06
2020/07/26 00:15:02+0000,-40.32,-45.56,-35.80,-49.10,-54.49,-56.67
2020/07/26 00:15:54+0000,-41.23,-45.70,-35.35,-64.28,-54.31,-56.04
2020/07/26 00:16:46+0000,-41.26,-46.58,-38.25,-49.26,-54.19,-56.02
2020/07/26 00:17:38+0000,-41.23,-44.58,-39.19,-65.78,-53.46,-56.36
2020/07/26 00:18:31+0000,-41.11,-44.77,-38.34,-49.84,-53.77,-56.20
2020/07/26 00:19:23+0000,-41.19,-45.15,-39.30,-65.44,-54.47,-55.82
2020/07/26 00:20:15+0000,-40.64,-45.02,-38.98,-50.10,-53.91,-55.92
2020/07/26 00:21:14+0000,-41.38,-46.06,-39.60,-48.81,-53.82,-56.38
2020/07/26 00:22:06+0000,-41.41,-46.53,-36.13,-67.83,-54.46,-55.81
2020/07/26 00:22:59+0000,-41.67,-46.13,-36.20,-49.92,-54.98,-56.40
2020/07/26 00:23:51+0000,-41.47,-46.05,-38.32,-50.08,-54.19,-55.77
2020/07/26 00:24:43+0000,-40.78,-46.57,-35.80,-63.51,-54.16,-56.45
2020/07/26 00:25:35+0000,-41.20,-44.95,-38.40,-48.40,-53.98,-56.03
2020/07/26 00:26:27+0000,-41.43,-45.89,-37.75,-49.79,-54.16,-55.92
2020/07/26 00:27:19+0000,-41.81,-45.49,-38.19,-50.23,-54.40,-55.82
2020/07/26 00:28:11+0000,-41.17,-45.39,-38.24,-49.09,-54.16,-55.52
2020/07/26 00:29:03+0000,-41.07,-44.88,-38.12,-67.42,-53.84,-56.30
2020/07/26 00:29:55+0000,-40.30,-46.42,-36.98,-48.30,-54.07,-55.23
2020/07/26 00:30:47+0000,-39.31,-45.36,-37.67,-67.34,-53.90,-56.23
2020/07/26 00:31:47+0000,-40.96,-44.79,-38.33,-63.63,-54.06,-56.08
2020/07/26 00:32:39+0000,-41.12,-47.88,-38.00,-48.70,-54.20,-56.06
2020/07/26 00:33:31+0000,-42.24,-48.45,-35.85,-67.22,-54.17,-55.94
2020/07/26 00:34:23+0000,-41.75,-48.49,-38.04,-48.72,-54.78,-56.50
2020/07/26 00:35:15+0000,-41.29,-47.64,-36.96,-67.07,-53.84,-56.76
2020/07/26 00:36:07+0000,-41.06,-48.68,-39.01,-47.73,-54.28,-55.32
2020/07/26 00:36:59+0000,-41.53,-47.30,-38.93,-67.61,-53.69,-56.29
2020/07/26 00:37:51+0000,-40.89,-48.72,-39.02,-49.06,-54.66,-55.71
2020/07/26 00:38:43+0000,-42.31,-47.94,-38.88,-65.63,-54.46,-56.17
2020/07/26 00:39:35+0000,-41.06,-47.84,-38.42,-44.92,-54.96,-55.88
2020/07/26 00:40:28+0000,-41.50,-48.40,-38.73,-48.58,-54.55,-55.88
2020/07/26 00:41:27+0000,-40.89,-48.89,-37.42,-48.63,-54.00,-55.96
2020/07/26 00:42:19+0000,-41.49,-47.33,-38.20,-49.54,-55.00,-56.60
2020/07/26 00:43:11+0000,-41.60,-47.31,-38.65,-46.92,-54.25,-56.08
2020/07/26 00:44:03+0000,-41.65,-48.07,-38.41,-49.68,-54.73,-56.33
2020/07/26 00:44:55+0000,-41.57,-48.14,-35.85,-49.05,-54.75,-56.12
2020/07/26 00:45:47+0000,-41.85,-51.35,-34.98,-46.46,-54.19,-56.31
2020/07/26 00:46:39+0000,-41.42,-50.68,-38.88,-46.45,-53.60,-56.05
2020/07/26 00:47:32+0000,-41.16,-51.46,-38.83,-49.20,-53.78,-56.19
2020/07/26 00:48:24+0000,-41.70,-51.06,-38.74,-48.98,-54.12,-56.08
2020/07/26 00:49:16+0000,-41.93,-51.15,-39.37,-45.82,-54.28,-55.93
2020/07/26 00:50:08+0000,-42.06,-51.76,-35.58,-47.07,-54.67,-56.03
2020/07/26 00:51:08+0000,-41.88,-51.72,-35.61,-45.95,-54.57,-56.48
2020/07/26 00:52:00+0000,-41.84,-50.68,-35.23,-49.49,-54.60,-56.90
2020/07/26 00:52:52+0000,-43.07,-51.08,-35.83,-49.00,-54.20,-56.33
2020/07/26 00:53:44+0000,-41.89,-51.33,-36.30,-46.76,-54.76,-56.50
2020/07/26 00:54:36+0000,-42.57,-50.88,-35.42,-50.22,-54.25,-55.90
2020/07/26 00:55:28+0000,-42.98,-50.85,-36.21,-48.95,-54.94,-56.39
2020/07/26 00:56:20+0000,-42.38,-50.57,-35.79,-50.00,-54.89,-56.25
2020/07/26 00:57:12+0000,-42.25,-51.30,-35.57,-47.33,-55.08,-56.72
2020/07/26 00:58:04+0000,-42.91,-49.88,-35.53,-48.99,-54.74,-56.49
2020/07/26 00:58:56+0000,-42.30,-51.04,-35.42,-49.50,-54.40,-56.13
2020/07/26 00:59:49+0000,-41.97,-50.58,-35.48,-49.78,-54.88,-56.65
2020/07/26 01:00:41+0000,-42.34,-50.61,-35.39,-46.98,-55.00,-56.19
2020/07/26 01:01:40+0000,-42.37,-49.99,-35.66,-46.16,-54.95,-56.19
2020/07/26 01:02:32+0000,-42.25,-50.32,-35.14,-50.07,-56.34,-56.33
2020/07/26 01:03:25+0000,-42.58,-50.73,-35.30,-50.30,-53.86,-56.12
2020/07/26 01:04:17+0000,-42.64,-50.22,-34.54,-46.90,-56.89,-56.54
2020/07/26 01:05:09+0000,-42.23,-50.34,-35.91,-49.75,-56.28,-56.38
2020/07/26 01:06:01+0000,-42.41,-50.48,-35.91,-49.83,-55.96,-56.14
2020/07/26 01:06:53+0000,-41.96,-49.73,-35.81,-49.76,-56.33,-56.23
2020/07/26 01:07:45+0000,-42.25,-49.90,-35.49,-45.85,-56.40,-56.16
2020/07/26 01:08:37+0000,-42.16,-49.98,-36.06,-48.53,-56.10,-56.10
2020/07/26 01:09:29+0000,-42.53,-50.38,-34.67,-48.26,-54.17,-56.47
2020/07/26 01:10:21+0000,-42.01,-51.30,-35.06,-48.11,-54.90,-55.97
2020/07/26 01:11:21+0000,-42.49,-50.52,-35.66,-49.43,-54.65,-56.49
2020/07/26 01:12:13+0000,-42.22,-50.56,-35.86,-47.02,-54.63,-56.45
2020/07/26 01:13:05+0000,-42.46,-50.24,-35.98,-45.95,-53.32,-56.17
2020/07/26 01:13:57+0000,-41.97,-50.56,-35.74,-48.43,-54.55,-56.39
2020/07/26 01:14:49+0000,-41.38,-50.11,-35.40,-49.36,-54.23,-55.85
2020/07/26 01:15:41+0000,-41.99,-50.21,-36.00,-46.75,-55.26,-55.73
2020/07/26 01:16:33+0000,-41.89,-50.43,-35.58,-48.36,-55.30,-55.53
2020/07/26 01:17:25+0000,-41.51,-50.62,-35.63,-48.98,-54.34,-55.78
2020/07/26 01:18:17+0000,-41.25,-50.36,-35.63,-49.19,-54.53,-55.80
2020/07/26 01:19:09+0000,-40.76,-50.53,-35.50,-49.00,-54.17,-55.69
2020/07/26 01:20:02+0000,-40.49,-49.85,-35.31,-49.56,-56.03,-56.01
2020/07/26 01:21:01+0000,-40.03,-50.91,-35.47,-48.66,-53.57,-55.71
2020/07/26 01:21:53+0000,-41.14,-50.96,-37.96,-50.75,-54.32,-56.31
2020/07/26 01:22:45+0000,-41.48,-50.27,-36.29,-49.69,-53.70,-55.44
2020/07/26 01:23:37+0000,-40.99,-50.83,-37.90,-48.80,-54.06,-56.10
2020/07/26 01:24:29+0000,-41.94,-50.56,-37.76,-49.25,-54.52,-55.67
2020/07/26 01:25:22+0000,-41.23,-49.32,-36.72,-48.83,-54.41,-56.10
2020/07/26 01:26:14+0000,-40.56,-49.29,-36.85,-48.83,-54.56,-55.87
2020/07/26 01:27:06+0000,-41.07,-49.77,-37.27,-48.83,-54.05,-56.05
2020/07/26 01:27:58+0000,-40.86,-49.36,-37.22,-50.01,-54.43,-54.98
2020/07/26 01:28:50+0000,-41.33,-48.09,-35.94,-49.73,-54.24,-55.62
2020/07/26 01:29:42+0000,-40.53,-47.96,-36.45,-49.55,-54.52,-55.80
2020/07/26 01:30:34+0000,-40.82,-47.70,-37.99,-49.20,-54.64,-55.05
2020/07/26 01:31:34+0000,-40.36,-47.67,-36.69,-48.58,-54.35,-55.58
2020/07/26 01:32:26+0000,-41.72,-47.69,-37.00,-49.54,-55.38,-55.68
2020/07/26 01:33:18+0000,-41.12,-47.47,-37.23,-49.93,-55.29,-55.53
2020/07/26 01:34:10+0000,-41.14,-47.60,-35.51,-49.34,-56.18,-56.28
2020/07/26 01:35:02+0000,-40.18,-44.72,-36.19,-49.27,-55.74,-55.61
2020/07/26 01:35:54+0000,-40.14,-45.17,-36.01,-49.31,-54.61,-55.75
2020/07/26 01:36:46+0000,-40.22,-44.91,-35.78,-49.86,-55.06,-55.40
2020/07/26 01:37:38+0000,-40.07,-46.71,-35.86,-49.78,-56.01,-55.65
2020/07/26 01:38:31+0000,-40.43,-45.53,-36.29,-49.12,-56.14,-55.45
2020/07/26 01:39:23+0000,-39.98,-46.18,-36.18,-49.28,-55.12,-54.99
2020/07/26 01:40:15+0000,-40.29,-44.92,-34.91,-49.37,-55.52,-56.14
2020/07/26 01:41:15+0000,-40.62,-45.49,-36.19,-49.44,-55.94,-55.57
2020/07/26 01:42:07+0000,-40.68,-45.53,-36.10,-48.98,-55.82,-56.22
2020/07/26 01:42:59+0000,-40.81,-45.17,-35.95,-49.13,-56.14,-55.94
2020/07/26 01:43:51+0000,-41.22,-45.52,-34.85,-49.56,-55.97,-56.06
2020/07/26 01:44:43+0000,-41.04,-46.29,-35.52,-49.07,-56.26,-55.57
2020/07/26 01:45:35+0000,-41.50,-48.08,-34.48,-50.51,-56.35,-55.55
2020/07/26 01:46:27+0000,-41.36,-47.42,-35.45,-50.13,-55.53,-55.54
2020/07/26 01:47:19+0000,-41.43,-48.69,-35.73,-49.84,-55.56,-55.79
2020/07/26 01:48:11+0000,-41.42,-49.79,-35.02,-50.01,-56.01,-55.66
2020/07/26 01:49:03+0000,-41.90,-48.44,-36.29,-50.50,-55.79,-55.91
2020/07/26 01:49:56+0000,-41.54,-47.48,-35.72,-48.27,-55.29,-56.13
2020/07/26 01:50:48+0000,-40.93,-46.94,-35.19,-49.32,-55.90,-55.90
2020/07/26 01:51:52+0000,-41.29,-49.82,-35.46,-49.62,-55.82,-56.14
2020/07/26 01:52:44+0000,-41.17,-46.94,-35.78,-50.01,-55.15,-56.12
2020/07/26 01:53:36+0000,-40.57,-45.02,-35.40,-49.97,-55.62,-56.09
2020/07/26 01:54:28+0000,-40.83,-43.43,-35.25,-49.81,-55.83,-55.46
2020/07/26 01:55:20+0000,-39.72,-47.29,-34.79,-50.34,-55.45,-56.15
2020/07/26 01:56:12+0000,-41.23,-47.22,-35.78,-49.56,-56.07,-56.05
2020/07/26 01:57:04+0000,-41.83,-47.59,-35.40,-49.18,-55.80,-56.43
2020/07/26 01:57:56+0000,-41.42,-47.93,-34.92,-49.35,-55.85,-56.79
2020/07/26 01:58:48+0000,-41.60,-48.91,-36.09,-48.66,-55.92,-55.93
2020/07/26 01:59:41+0000,-41.73,-48.58,-36.64,-48.63,-56.96,-56.18
2020/07/26 02:00:33+0000,-41.61,-47.88,-36.40,-49.64,-56.40,-56.15
2020/07/26 02:01:35+0000,-41.00,-51.61,-36.66,-49.51,-56.30,-55.83
2020/07/26 02:02:27+0000,-41.44,-49.25,-36.64,-49.53,-56.39,-56.32
2020/07/26 02:03:19+0000,-42.56,-50.78,-36.42,-49.03,-56.00,-56.37
2020/07/26 02:04:11+0000,-42.56,-50.61,-36.56,-48.88,-56.25,-55.74
2020/07/26 02:05:03+0000,-41.22,-49.85,-36.60,-49.75,-56.19,-56.22
2020/07/26 02:05:56+0000,-42.07,-50.49,-36.81,-49.24,-56.43,-56.18
2020/07/26 02:06:48+0000,-42.38,-50.37,-35.89,-49.45,-55.77,-55.63
2020/07/26 02:07:40+0000,-41.56,-50.62,-36.71,-49.04,-56.04,-56.35
2020/07/26 02:08:32+0000,-41.00,-50.14,-36.51,-49.01,-56.90,-56.02
2020/07/26 02:09:24+0000,-41.40,-50.84,-36.63,-48.45,-56.36,-56.30
2020/07/26 02:10:16+0000,-41.65,-50.93,-36.20,-48.25,-55.89,-56.26
2020/07/26 02:11:16+0000,-41.92,-50.17,-36.48,-47.72,-55.53,-55.86
2020/07/26 02:12:09+0000,-41.85,-49.31,-35.75,-48.53,-56.97,-55.76
2020/07/26 02:13:01+0000,-42.03,-49.44,-34.73,-49.47,-57.09,-55.92
2020/07/26 02:13:53+0000,-41.09,-50.69,-34.28,-48.43,-55.89,-56.42
2020/07/26 02:14:45+0000,-41.51,-49.57,-37.24,-49.33,-56.10,-55.61
2020/07/26 02:15:37+0000,-41.99,-51.04,-36.94,-48.88,-56.72,-56.03
2020/07/26 02:16:29+0000,-41.72,-50.40,-36.84,-49.38,-56.91,-56.81
2020/07/26 02:17:21+0000,-42.37,-50.97,-36.46,-50.50,-56.65,-56.12
2020/07/26 02:18:13+0000,-42.43,-50.41,-36.33,-49.25,-56.62,-55.89
2020/07/26 02:19:05+0000,-41.41,-51.18,-37.55,-48.75,-56.07,-56.29
2020/07/26 02:19:57+0000,-39.36,-49.91,-36.67,-49.25,-56.34,-55.80
2020/07/26 02:20:49+0000,-39.61,-50.00,-35.82,-49.05,-55.96,-55.93
2020/07/26 02:21:48+0000,-38.92,-50.25,-36.77,-50.35,-56.58,-56.06
2020/07/26 02:22:41+0000,-41.24,-50.22,-36.46,-48.86,-56.30,-56.29
2020/07/26 02:23:33+0000,-41.86,-50.54,-36.00,-50.07,-56.16,-56.16
2020/07/26 02:24:25+0000,-42.23,-48.56,-35.11,-49.31,-56.79,-56.34
2020/07/26 02:25:17+0000,-42.69,-49.58,-34.30,-49.13,-56.65,-55.54
2020/07/26 02:26:09+0000,-42.03,-48.99,-35.05,-48.42,-56.12,-55.90
2020/07/26 02:27:01+0000,-42.16,-49.00,-34.19,-48.69,-56.58,-56.29
2020/07/26 02:27:53+0000,-41.64,-49.69,-34.68,-49.26,-55.79,-55.61
2020/07/26 02:28:45+0000,-41.71,-50.70,-34.54,-49.44,-55.65,-56.48
2020/07/26 02:29:37+0000,-41.79,-51.25,-34.46,-50.15,-56.63,-56.02
2020/07/26 02:30:29+0000,-41.91,-47.96,-34.76,-49.90,-56.30,-56.06
2020/07/26 02:31:29+0000,-39.88,-50.42,-35.26,-50.14,-55.75,-55.82
2020/07/26 02:32:21+0000,-41.58,-51.25,-33.78,-49.69,-55.97,-56.49
2020/07/26 02:33:13+0000,-40.92,-50.02,-33.82,-49.35,-56.25,-56.45
2020/07/26 02:34:05+0000,-41.55,-45.99,-33.78,-49.90,-57.24,-56.16
2020/07/26 02:34:57+0000,-41.43,-50.02,-34.06,-49.23,-55.98,-56.03
2020/07/26 02:35:49+0000,-40.82,-48.95,-35.61,-48.49,-54.98,-55.97
2020/07/26 02:36:41+0000,-41.66,-49.29,-34.78,-49.24,-54.98,-56.16
2020/07/26 02:37:33+0000,-41.12,-49.34,-34.33,-49.36,-55.09,-56.07
2020/07/26 02:38:25+0000,-41.18,-49.76,-34.51,-49.43,-55.37,-56.02
2020/07/26 02:39:17+0000,-41.47,-41.44,-34.83,-49.44,-55.31,-55.99
2020/07/26 02:40:10+0000,-41.38,-49.80,-35.88,-49.61,-54.51,-56.24
2020/07/26 02:41:09+0000,-41.73,-47.50,-34.58,-49.71,-53.86,-56.12
2020/07/26 02:42:01+0000,-41.68,-49.45,-34.92,-49.21,-54.21,-55.69
2020/07/26 02:42:53+0000,-41.28,-49.94,-34.31,-48.87,-54.34,-55.97
2020/07/26 02:43:45+0000,-42.27,-48.58,-35.51,-48.35,-54.13,-56.09
2020/07/26 02:44:37+0000,-41.41,-50.37,-35.17,-49.00,-54.08,-56.05
2020/07/26 02:45:29+0000,-41.72,-50.75,-35.09,-49.64,-54.45,-56.22
2020/07/26 02:46:21+0000,-41.60,-50.81,-35.17,-49.08,-54.30,-56.23
2020/07/26 02:47:13+0000,-41.29,-49.78,-35.08,-48.90,-54.46,-56.58
2020/07/26 02:48:05+0000,-41.82,-50.02,-34.51,-48.49,-54.69,-56.27
2020/07/26 02:48:58+0000,-41.18,-49.87,-34.28,-48.74,-55.26,-56.01
2020/07/26 02:49:50+0000,-41.52,-49.45,-34.06,-49.37,-54.64,-56.29
2020/07/26 02:50:42+0000,-41.37,-48.84,-34.10,-47.99,-54.37,-56.44
2020/07/26 02:51:41+0000,-40.86,-49.50,-34.74,-48.86,-54.12,-56.71
2020/07/26 02:52:33+0000,-41.09,-49.57,-35.09,-48.85,-54.21,-56.26
2020/07/26 02:53:25+0000,-41.35,-50.12,-34.93,-48.30,-54.84,-56.09
2020/07/26 02:54:18+0000,-40.91,-49.50,-34.17,-48.97,-54.46,-56.38
2020/07/26 02:55:10+0000,-41.72,-48.79,-36.17,-47.71,-54.74,-56.32
2020/07/26 02:56:02+0000,-41.43,-49.38,-35.97,-47.31,-54.52,-55.51
2020/07/26 02:56:54+0000,-40.86,-49.10,-35.66,-47.62,-54.63,-56.19
2020/07/26 02:57:46+0000,-40.28,-48.76,-35.41,-48.00,-55.32,-56.25
2020/07/26 02:58:38+0000,-41.28,-49.96,-35.31,-47.27,-55.26,-55.77
2020/07/26 02:59:30+0000,-41.65,-47.49,-35.32,-48.01,-54.78,-55.97
2020/07/26 03:00:23+0000,-40.74,-49.48,-35.28,-46.00,-54.65,-55.91
2020/07/26 03:01:23+0000,-41.04,-49.59,-35.07,-48.44,-54.72,-56.61
2020/07/26 03:02:15+0000,-41.55,-47.48,-35.11,-48.19,-54.74,-55.95
2020/07/26 03:03:07+0000,-42.56,-49.04,-35.97,-48.26,-54.11,-56.06
2020/07/26 03:03:59+0000,-43.97,-45.97,-35.87,-48.42,-54.07,-55.88
2020/07/26 03:04:51+0000,-43.28,-51.01,-35.74,-48.72,-54.65,-56.15
2020/07/26 03:05:43+0000,-42.48,-48.10,-36.04,-47.67,-54.41,-55.52
2020/07/26 03:06:35+0000,-42.89,-50.47,-35.55,-46.72,-54.07,-56.37
2020/07/26 03:07:28+0000,-43.07,-47.84,-35.56,-48.34,-54.25,-56.03
2020/07/26 03:08:20+0000,-42.70,-51.29,-35.22,-48.50,-54.35,-55.82
2020/07/26 03:09:12+0000,-43.48,-48.62,-35.44,-47.98,-55.22,-55.92
2020/07/26 03:10:04+0000,-43.65,-48.69,-34.71,-47.94,-54.90,-55.91
2020/07/26 03:11:03+0000,-44.27,-49.43,-35.18,-48.56,-54.45,-56.32
2020/07/26 03:11:55+0000,-42.84,-49.64,-35.56,-48.96,-54.14,-56.05
2020/07/26 03:12:48+0000,-42.98,-48.33,-35.13,-48.02,-54.90,-56.26
2020/07/26 03:13:40+0000,-41.07,-48.89,-34.60,-47.99,-54.78,-56.21
2020/07/26 03:14:32+0000,-42.64,-47.65,-35.75,-47.98,-55.38,-56.13
2020/07/26 03:15:24+0000,-42.75,-48.79,-35.61,-48.21,-55.36,-55.60
2020/07/26 03:16:16+0000,-42.87,-48.32,-36.37,-47.54,-54.86,-56.03
2020/07/26 03:17:08+0000,-42.48,-48.57,-35.47,-48.91,-54.85,-56.05
2020/07/26 03:18:00+0000,-43.38,-49.08,-35.33,-49.25,-55.72,-56.14
2020/07/26 03:18:52+0000,-43.01,-45.51,-34.65,-49.14,-55.12,-55.64
2020/07/26 03:19:44+0000,-42.35,-46.31,-34.35,-47.39,-55.34,-56.06
2020/07/26 03:20:36+0000,-37.13,-48.59,-35.29,-48.84,-55.90,-55.87
2020/07/26 03:21:36+0000,-41.31,-47.06,-34.95,-49.17,-56.52,-55.95
2020/07/26 03:22:28+0000,-41.66,-46.03,-35.03,-48.77,-55.96,-56.43
2020/07/26 03:23:20+0000,-41.76,-47.18,-35.08,-48.33,-55.72,-55.74
2020/07/26 03:24:12+0000,-41.10,-45.80,-34.97,-48.42,-55.73,-55.77
2020/07/26 03:25:04+0000,-39.27,-45.60,-34.77,-47.99,-56.30,-55.63
2020/07/26 03:25:56+0000,-42.46,-44.35,-35.63,-48.82,-56.44,-56.14
2020/07/26 03:26:48+0000,-42.98,-47.67,-34.75,-48.99,-56.66,-55.63
2020/07/26 03:27:40+0000,-41.54,-46.42,-34.93,-48.57,-56.25,-56.04
2020/07/26 03:28:32+0000,-42.77,-45.18,-34.51,-48.59,-56.16,-55.74
2020/07/26 03:29:24+0000,-42.43,-45.90,-35.21,-49.00,-55.79,-55.82
2020/07/26 03:30:17+0000,-43.31,-47.15,-35.44,-47.88,-56.77,-55.85
2020/07/26 03:31:16+0000,-43.27,-45.41,-35.64,-48.68,-56.30,-55.80
2020/07/26 03:32:08+0000,-41.32,-46.24,-34.50,-49.02,-56.29,-56.24
2020/07/26 03:33:00+0000,-42.28,-46.27,-34.82,-49.51,-55.58,-56.28
2020/07/26 03:33:52+0000,-42.50,-47.20,-34.64,-48.23,-56.60,-56.19
2020/07/26 03:34:44+0000,-42.28,-45.07,-35.07,-48.27,-56.66,-56.35
2020/07/26 03:35:36+0000,-41.51,-46.49,-34.50,-48.38,-56.98,-55.69
2020/07/26 03:36:28+0000,-42.53,-43.94,-35.19,-48.88,-55.95,-55.59
2020/07/26 03:37:20+0000,-41.89,-47.60,-34.97,-48.81,-56.33,-55.83
2020/07/26 03:38:12+0000,-40.32,-47.00,-34.93,-48.70,-56.26,-55.48
2020/07/26 03:39:04+0000,-41.54,-45.65,-34.89,-49.02,-56.42,-55.91
2020/07/26 03:39:57+0000,-41.65,-44.80,-34.80,-49.21,-56.24,-56.07
2020/07/26 03:40:49+0000,-40.81,-44.46,-34.99,-48.73,-56.52,-56.10
2020/07/26 03:41:48+0000,-41.28,-44.54,-34.88,-47.72,-56.87,-56.52
2020/07/26 03:42:41+0000,-40.83,-42.92,-34.91,-48.52,-56.06,-55.83
2020/07/26 03:43:33+0000,-41.26,-45.27,-35.18,-48.78,-56.48,-56.21
2020/07/26 03:44:25+0000,-41.92,-43.77,-35.41,-49.04,-56.48,-56.39
2020/07/26 03:45:17+0000,-39.65,-45.79,-34.64,-48.77,-56.30,-55.49
2020/07/26 03:46:09+0000,-41.51,-45.34,-35.11,-48.67,-56.32,-56.06
2020/07/26 03:47:01+0000,-39.31,-44.09,-34.92,-48.55,-56.28,-56.27
2020/07/26 03:47:53+0000,-41.15,-44.39,-34.81,-48.80,-56.56,-56.46
2020/07/26 03:48:45+0000,-42.60,-45.45,-34.51,-48.88,-56.52,-56.04
2020/07/26 03:49:37+0000,-39.87,-47.31,-34.97,-48.33,-56.64,-56.23
2020/07/26 03:50:29+0000,-38.84,-42.50,-35.59,-48.44,-56.70,-56.78
2020/07/26 03:51:28+0000,-37.39,-43.41,-34.58,-47.46,-56.50,-55.89
2020/07/26 03:52:20+0000,-39.80,-47.23,-34.69,-48.40,-56.00,-56.38
2020/07/26 03:53:13+0000,-41.26,-45.63,-34.68,-49.04,-56.18,-55.96
2020/07/26 03:54:05+0000,-41.01,-44.18,-35.12,-48.30,-56.40,-56.77
2020/07/26 03:54:57+0000,-39.67,-45.35,-34.98,-48.32,-56.04,-56.11
2020/07/26 03:55:49+0000,-41.96,-46.46,-34.39,-49.21,-55.72,-55.33
2020/07/26 03:56:41+0000,-41.74,-46.60,-34.95,-49.14,-56.21,-56.02
2020/07/26 03:57:33+0000,-40.79,-45.42,-34.93,-48.94,-56.63,-55.88
2020/07/26 03:58:25+0000,-39.13,-47.86,-34.88,-49.07,-55.89,-56.25
2020/07/26 03:59:17+0000,-38.51,-48.93,-34.95,-48.89,-55.93,-56.01
2020/07/26 04:00:09+0000,-37.52,-48.10,-35.38,-48.52,-56.25,-56.03
2020/07/26 04:01:12+0000,-40.41,-46.37,-35.56,-48.70,-56.37,-55.67
2020/07/26 04:02:04+0000,-40.16,-47.77,-35.62,-49.13,-56.32,-56.21
2020/07/26 04:02:56+0000,-38.92,-47.54,-35.77,-48.97,-56.12,-56.10
2020/07/26 04:03:48+0000,-39.92,-47.07,-36.01,-48.53,-56.94,-56.51
2020/07/26 04:04:40+0000,-40.78,-46.15,-35.35,-48.27,-56.42,-55.99
2020/07/26 04:05:32+0000,-40.48,-48.31,-34.70,-49.16,-56.83,-56.09
2020/07/26 04:06:24+0000,-37.58,-47.98,-35.44,-49.50,-56.60,-56.26
2020/07/26 04:07:16+0000,-36.78,-47.68,-35.44,-48.30,-55.88,-56.22
2020/07/26 04:08:09+0000,-41.31,-49.26,-35.55,-48.57,-55.98,-56.37
2020/07/26 04:09:01+0000,-41.68,-46.19,-35.54,-48.65,-56.90,-56.06
2020/07/26 04:09:53+0000,-41.24,-48.51,-35.44,-48.70,-56.77,-56.08
2020/07/26 04:10:45+0000,-42.98,-45.89,-35.52,-47.80,-56.29,-55.71
2020/07/26 04:11:44+0000,-41.48,-43.60,-35.59,-49.83,-56.69,-56.32
2020/07/26 04:12:37+0000,-41.70,-50.93,-35.43,-49.51,-56.68,-55.70
2020/07/26 04:13:29+0000,-41.41,-46.05,-36.03,-48.95,-56.60,-56.08
2020/07/26 04:14:21+0000,-35.18,-50.58,-35.57,-48.64,-56.43,-56.00
2020/07/26 04:15:13+0000,-42.15,-45.98,-35.61,-48.51,-57.13,-56.27
2020/07/26 04:16:05+0000,-41.93,-47.62,-36.16,-49.24,-56.60,-56.08
2020/07/26 04:16:57+0000,-41.47,-45.16,-35.70,-48.91,-56.54,-55.96
2020/07/26 04:17:49+0000,-41.86,-47.26,-35.26,-49.36,-56.45,-56.26
2020/07/26 04:18:41+0000,-40.48,-48.88,-35.86,-48.08,-56.60,-56.49
2020/07/26 04:19:33+0000,-40.92,-49.80,-35.65,-49.46,-57.17,-56.07
2020/07/26 04:20:25+0000,-42.03,-49.72,-35.91,-47.77,-56.20,-55.90
2020/07/26 04:21:25+0000,-41.79,-47.10,-35.15,-47.82,-56.57,-56.05
2020/07/26 04:22:17+0000,-40.51,-45.42,-35.54,-48.39,-56.32,-56.19
2020/07/26 04:23:09+0000,-37.21,-43.54,-35.34,-48.39,-56.19,-56.26
2020/07/26 04:24:01+0000,-42.52,-48.21,-35.57,-48.42,-56.44,-56.06
2020/07/26 04:24:53+0000,-41.94,-51.03,-35.30,-49.12,-56.26,-56.04
2020/07/26 04:25:45+0000,-43.42,-45.74,-35.95,-48.59,-56.19,-56.12
2020/07/26 04:26:37+0000,-40.70,-51.12,-35.93,-48.89,-57.02,-55.73
2020/07/26 04:27:30+0000,-42.88,-48.80,-35.98,-48.81,-56.87,-55.51
2020/07/26 04:28:22+0000,-42.50,-46.92,-36.11,-48.82,-56.51,-56.20
2020/07/26 04:29:14+0000,-40.48,-46.09,-36.02,-48.49,-56.35,-55.97
2020/07/26 04:30:06+0000,-40.66,-47.33,-35.67,-48.98,-57.27,-56.63
2020/07/26 04:31:06+0000,-38.46,-46.65,-35.84,-48.20,-57.01,-56.27
2020/07/26 04:31:58+0000,-40.84,-47.40,-35.90,-49.00,-56.13,-56.32
2020/07/26 04:32:50+0000,-40.83,-46.59,-35.70,-48.91,-56.52,-56.39
2020/07/26 04:33:42+0000,-40.35,-43.13,-35.61,-48.27,-56.46,-56.14
2020/07/26 04:34:34+0000,-39.18,-46.43,-36.18,-48.28,-57.12,-56.26
2020/07/26 04:35:26+0000,-40.68,-45.63,-36.06,-49.11,-56.30,-56.11
2020/07/26 04:36:18+0000,-41.28,-46.67,-36.65,-48.44,-56.07,-56.34
2020/07/26 04:37:10+0000,-40.76,-46.76,-36.86,-48.87,-56.64,-56.04
2020/07/26 04:38:02+0000,-40.75,-47.38,-37.27,-47.91,-56.25,-56.04
2020/07/26 04:38:54+0000,-42.08,-46.00,-37.02,-48.04,-55.75,-56.02
2020/07/26 04:39:47+0000,-41.71,-46.64,-36.86,-47.71,-56.23,-55.43
2020/07/26 04:40:39+0000,-41.33,-45.36,-35.88,-48.14,-56.42,-56.66
2020/07/26 04:41:38+0000,-40.32,-45.26,-35.57,-47.17,-56.31,-56.71
2020/07/26 04:42:30+0000,-41.13,-45.60,-36.65,-48.21,-55.41,-56.14
2020/07/26 04:43:22+0000,-40.16,-47.76,-36.25,-47.84,-55.76,-56.46
2020/07/26 04:44:14+0000,-41.53,-46.47,-35.55,-47.91,-56.51,-56.53
2020/07/26 04:45:06+0000,-40.68,-46.98,-36.04,-47.92,-56.36,-56.12
2020/07/26 04:45:59+0000,-40.65,-43.56,-36.57,-47.79,-56.32,-56.20